EJM68 KMIA-07FA

Flight info

Callsign EJM68
Flight time 0h 14m
Altitude 5000
Route JURER
Aircraft C680/M-SDFGHRWY/SB1

Departure

Time 2026-04-21 02:17
Airport Miami International Airport (KMIA)

Arrival

Time 2026-04-21 02:31
Airport Ocean Reef Club Airport (07FA)
Time Latitude Longitude Altitude Speed Heading
2026-04-21 02:07 25.80619 -80.29058 13 ft 0 kts
2026-04-21 02:13 25.80633 -80.29060 13 ft 4 kts 335°
2026-04-21 02:14 25.80637 -80.29111 12 ft 11 kts 245°
2026-04-21 02:14 25.80554 -80.29135 13 ft 15 kts 178°
2026-04-21 02:14 25.80455 -80.29147 15 ft 11 kts 227°
2026-04-21 02:14 25.80441 -80.29239 16 ft 17 kts 266°
2026-04-21 02:15 25.80434 -80.29371 15 ft 18 kts 266°
2026-04-21 02:15 25.80427 -80.29531 15 ft 23 kts 266°
2026-04-21 02:15 25.80422 -80.29714 18 ft 25 kts 269°
2026-04-21 02:15 25.80411 -80.29917 18 ft 28 kts 268°
2026-04-21 02:16 25.80396 -80.30075 17 ft 15 kts 226°
2026-04-21 02:16 25.80307 -80.30052 15 ft 15 kts 117°
2026-04-21 02:16 25.80297 -80.29988 15 ft 8 kts 87°
2026-04-21 02:16 25.80317 -80.29538 15 ft 108 kts 86°
2026-04-21 02:17 25.80340 -80.28459 454 ft 161 kts 86°
2026-04-21 02:17 25.80332 -80.27104 1557 ft 193 kts 88°
2026-04-21 02:17 25.79852 -80.25469 2289 ft 251 kts 109°
2026-04-21 02:17 25.79001 -80.23595 3035 ft 292 kts 112°
2026-04-21 02:18 25.78027 -80.21479 3783 ft 315 kts 113°
2026-04-21 02:18 25.77079 -80.19393 4515 ft 292 kts 113°
2026-04-21 02:18 25.76169 -80.17453 4981 ft 282 kts 117°
2026-04-21 02:18 25.74732 -80.15998 4992 ft 283 kts 148°
2026-04-21 02:19 25.72806 -80.15575 4989 ft 290 kts 180°
2026-04-21 02:19 25.70893 -80.16246 4992 ft 288 kts 210°
2026-04-21 02:19 25.69459 -80.17741 4999 ft 282 kts 232°
2026-04-21 02:19 25.68326 -80.19529 4997 ft 285 kts 237°
2026-04-21 02:20 25.67185 -80.21317 5017 ft 283 kts 233°
2026-04-21 02:20 25.65971 -80.23010 5016 ft 286 kts 231°
2026-04-21 02:20 25.64548 -80.24534 5013 ft 285 kts 216°
2026-04-21 02:20 25.62844 -80.25659 5010 ft 286 kts 207°
2026-04-21 02:21 25.61106 -80.26732 5011 ft 285 kts 209°
2026-04-21 02:21 25.59403 -80.27833 5004 ft 282 kts 210°
2026-04-21 02:21 25.57708 -80.28945 5003 ft 285 kts 210°
2026-04-21 02:21 25.55979 -80.30060 5005 ft 290 kts 210°
2026-04-21 02:22 25.54244 -80.31169 5004 ft 284 kts 210°
2026-04-21 02:22 25.52547 -80.32259 5004 ft 282 kts 210°
2026-04-21 02:22 25.50839 -80.33360 5003 ft 285 kts 210°
2026-04-21 02:22 25.49129 -80.34461 5002 ft 284 kts 210°
2026-04-21 02:23 25.47420 -80.35560 5000 ft 282 kts 209°
2026-04-21 02:23 25.45737 -80.36639 5001 ft 287 kts 209°
2026-04-21 02:23 25.44020 -80.37739 5001 ft 281 kts 210°
2026-04-21 02:23 25.42340 -80.38819 5001 ft 281 kts 210°
2026-04-21 02:24 25.40639 -80.39912 5002 ft 284 kts 209°
2026-04-21 02:24 25.38919 -80.41015 5004 ft 288 kts 210°
2026-04-21 02:24 25.37194 -80.42120 5004 ft 283 kts 210°
2026-04-21 02:24 25.35504 -80.43205 5002 ft 281 kts 210°
2026-04-21 02:25 25.33804 -80.44294 5002 ft 285 kts 210°
2026-04-21 02:25 25.32087 -80.45393 5002 ft 283 kts 210°
2026-04-21 02:25 25.30326 -80.46266 4996 ft 273 kts 194°
2026-04-21 02:25 25.28439 -80.46496 4883 ft 277 kts 176°
2026-04-21 02:26 25.26550 -80.46076 4559 ft 278 kts 158°
2026-04-21 02:26 25.24884 -80.45052 4208 ft 271 kts 140°
2026-04-21 02:26 25.23608 -80.43577 3854 ft 262 kts 123°
2026-04-21 02:26 25.22802 -80.41841 3511 ft 248 kts 105°
2026-04-21 02:27 25.22473 -80.40031 3191 ft 234 kts 90°
2026-04-21 02:27 25.22569 -80.38300 2880 ft 218 kts 76°
2026-04-21 02:27 25.23008 -80.36754 2589 ft 206 kts 64°
2026-04-21 02:27 25.23710 -80.35436 2360 ft 193 kts 52°
2026-04-21 02:28 25.24281 -80.34702 2188 ft 188 kts 45°
2026-04-21 02:28 25.25212 -80.33841 1919 ft 160 kts 38°
2026-04-21 02:28 25.26041 -80.33136 1685 ft 142 kts 38°
2026-04-21 02:28 25.26792 -80.32482 1471 ft 133 kts 38°
2026-04-21 02:29 25.27515 -80.31854 1269 ft 133 kts 39°
2026-04-21 02:29 25.28222 -80.31237 1073 ft 125 kts 38°
2026-04-21 02:29 25.28860 -80.30679 892 ft 110 kts 37°
2026-04-21 02:29 25.29435 -80.30177 741 ft 102 kts 36°
2026-04-21 02:30 25.29997 -80.29691 582 ft 104 kts 36°
2026-04-21 02:30 25.30560 -80.29202 410 ft 100 kts 37°
2026-04-21 02:30 25.31113 -80.28736 277 ft 96 kts 36°
2026-04-21 02:30 25.31609 -80.28289 117 ft 95 kts 36°
2026-04-21 02:31 25.32126 -80.27839 12 ft 87 kts 38°
2026-04-21 02:31 25.32519 -80.27496 7 ft 55 kts 38°
2026-04-21 02:31 25.32739 -80.27307 10 ft 34 kts 38°
2026-04-21 02:31 25.32874 -80.27188 9 ft 8 kts 50°
2026-04-21 02:32 25.32883 -80.27160 9 ft 6 kts 73°
2026-04-21 02:32 25.32898 -80.27155 9 ft 2 kts 275°
2026-04-21 02:32 25.32855 -80.27204 9 ft 17 kts 218°
2026-04-21 02:32 25.32748 -80.27298 9 ft 22 kts 218°
2026-04-21 02:33 25.32620 -80.27408 9 ft 25 kts 218°
2026-04-21 02:33 25.32497 -80.27515 7 ft 21 kts 219°
2026-04-21 02:33 25.32382 -80.27616 6 ft 22 kts 218°
2026-04-21 02:33 25.32255 -80.27726 6 ft 23 kts 217°
2026-04-21 02:34 25.32149 -80.27812 9 ft 9 kts 197°
2026-04-21 02:34 25.32126 -80.27803 9 ft 6 kts 140°
2026-04-21 02:34 25.32121 -80.27803 9 ft 3 kts 200°
2026-04-21 02:34 25.32117 -80.27806 9 ft 0 kts 216°